User: anonymous   Login
Location: Unspecified
(0.0000°N, 0.0000°E)
Time: 05:25:52
(UTC+00:00)
Language:

ZA-AEROSAT - Orbit

View from above orbital plane
View from above orbital plane
View from above satellite
View from above satellite

Ground track
Ground track

The orbit data is extracted from the following two-line orbital elements,

1 42713U 98067LU  19083.18646700  .00081253  00000-0  29111-3 0  9996
2 42713  51.6317 358.0905 0004393 162.4262 197.6895 15.88069072105674
Epoch (UTC): 24 March 2019 04:28:30
Eccentricity: 0.0004393
inclination: 51.6317°
perigee height: 305 km
apogee height: 310 km
right ascension of ascending node: 358.0905°
argument of perigee: 162.4262°
revolutions per day: 15.88069072
mean anomaly at epoch: 197.6895°
orbit number at epoch: 10567

The dashed part of the orbit path shows where the satellite is in the earth's shadow,  

DLR